TimeMDT,TemperatureF,Dew PointF,Humidity,Sea Level PressureIn,VisibilityMPH,Wind Direction,Wind SpeedMPH,Gust SpeedMPH,PrecipitationIn,Events,Conditions,WindDirDegrees,DateUTC
12:53 AM,32.0,16.0,52,30.11,10.0,Calm,Calm,-,N/A,,Clear,0,2014-03-23 06:53:00
1:53 AM,30.0,17.1,59,30.12,10.0,Calm,Calm,-,N/A,,Clear,0,2014-03-23 07:53:00
2:53 AM,26.1,16.0,66,30.14,10.0,Calm,Calm,-,N/A,,Clear,0,2014-03-23 08:53:00
3:53 AM,23.0,14.0,68,30.17,10.0,Calm,Calm,-,N/A,,Clear,0,2014-03-23 09:53:00
4:53 AM,25.0,14.0,63,30.17,10.0,Calm,Calm,-,N/A,,Clear,0,2014-03-23 10:53:00
5:53 AM,19.0,10.9,71,30.22,10.0,Calm,Calm,-,N/A,,Clear,0,2014-03-23 11:53:00
6:53 AM,17.1,10.0,74,30.25,10.0,Calm,Calm,-,N/A,,Clear,0,2014-03-23 12:53:00
7:53 AM,21.0,12.0,68,30.28,10.0,East,4.6,-,N/A,,Clear,80,2014-03-23 13:53:00
8:53 AM,32.0,14.0,48,30.26,10.0,East,4.6,-,N/A,,Clear,80,2014-03-23 14:53:00
9:53 AM,39.9,12.0,32,30.23,10.0,ESE,4.6,-,N/A,,Clear,110,2014-03-23 15:53:00
10:53 AM,45.0,6.1,20,30.20,10.0,Calm,Calm,-,N/A,,Clear,0,2014-03-23 16:53:00
11:53 AM,50.0,8.1,18,30.17,10.0,SSW,8.1,-,N/A,,Clear,210,2014-03-23 17:53:00
12:53 PM,53.1,8.1,16,30.14,10.0,WSW,10.4,25.3,N/A,,Mostly Cloudy,250,2014-03-23 18:53:00
1:53 PM,55.9,9.0,15,30.11,10.0,West,11.5,-,N/A,,Partly Cloudy,270,2014-03-23 19:53:00
2:53 PM,55.0,9.0,16,30.10,10.0,West,16.1,21.9,N/A,,Partly Cloudy,270,2014-03-23 20:53:00
3:53 PM,54.0,10.9,18,30.10,10.0,West,8.1,21.9,N/A,,Mostly Cloudy,270,2014-03-23 21:53:00
4:53 PM,53.1,12.0,20,30.09,10.0,West,16.1,21.9,N/A,,Mostly Cloudy,260,2014-03-23 22:53:00
5:53 PM,54.0,10.0,17,30.12,10.0,West,15.0,26.5,N/A,,Partly Cloudy,280,2014-03-23 23:53:00
6:53 PM,51.1,6.1,16,30.17,10.0,WNW,13.8,23.0,N/A,,Clear,290,2014-03-24 00:53:00
7:53 PM,46.0,1.0,16,30.17,10.0,West,6.9,-,N/A,,Clear,280,2014-03-24 01:53:00
8:53 PM,43.0,1.9,18,30.15,10.0,WSW,5.8,-,N/A,,Clear,240,2014-03-24 02:53:00
9:53 PM,41.0,1.9,20,30.14,10.0,West,4.6,-,N/A,,Clear,280,2014-03-24 03:53:00
10:53 PM,33.1,6.1,32,30.17,10.0,North,8.1,-,N/A,,Clear,10,2014-03-24 04:53:00
11:53 PM,30.9,10.0,42,30.16,10.0,North,6.9,-,N/A,,Clear,350,2014-03-24 05:53:00